|
NORAD ID: 33914 Int'l Code: 1993-036DT
Perigee: 780.5 km
Apogee: 1,248.9 km
Inclination: 74.1 °
Period: 105.3 minutes
Semi major axis: 7385 km
Launch date: June 16, 1993
Source: Commonwealth of Independent States (former USSR) (CIS)
Note: This is SATELLITE DEBRIS
Two Line Element Set (TLE):
1 33914U 93036DT 13139.85936194 .00000681 00000-0 58390-3 0 2168
2 33914 074.0900 347.1914 0317065 070.0504 006.9023 13.67780165212941
Source:
NASA's NSSDC Master Catalog entry for COSMOS 2251 DEB
|